Tracking 30074 objects as of 14-Jan-2025
HD Live streaming from Space Station
objects crossing your sky now

OBJECT J

Track OBJECT J now!
10-day predictions


NORAD ID: 54690
Int'l Code: 2022-167J
Perigee: 506.7 km
Apogee: 518.0 km
Inclination: 97.6 °
Period: 94.7 minutes
Semi major axis: 6883 km
RCS: Unknown
Launch date: December 9, 2022
Source: People's Republic of China (PRC)
Launch site: Yellow Sea Launch Area, China (YSLA)
Your satellite tracking list
Your tracking list is empty




NASA's NSSDC Master Catalog

Two Line Element Set (TLE):
1 54690U 22167J   25013.93917101  .00012630  00000-0  58517-3 0  9995
2 54690  97.6255 162.9079 0008207 135.8446 224.3445 15.20203784116084
Source of the keplerian elements: AFSPC